Location: Ford County Road and Bridge Department
(37.7686°N, 99.9762°W)
Time: 04:21:37
(UTC+00:00)

Cosmos 1980 - Pass Details

Date: 18 January 2020
Orbit: 838 x 849 km, 71.0° (Epoch: 19 February)

Event Time Altitude Azimuth Distance (km) Brightness Sun altitude
Rises 02:11:23 0° 334° (NNW) 3,417 7.1 -28.2°
Reaches altitude 10° 02:13:51 10° 331° (NNW) 2,479 6.4 -28.7°
Maximum altitude 02:19:27 62° 252° (WSW) 948 4.0 -29.8°
Enters shadow 02:21:08 43° 193° (SSW) 1,170 4.4 -30.2°
